sat.trackr.live / text

‹ back to catalog

STARLINK-34309

NORAD 64167 · 2025-112X

PAYLOAD ACTIVE UNKNOWN

§ Identity

Operator
Country
US
Launch date
2025-05-27
Launch site
AFWTR
Launch vehicle
Mass (kg)
RCS (m²)

Purposes: comms

External: N2YO · Heavens-Above · Gunter

§ Orbital elements

Epoch: 2026-05-25T03:14:04.254144Z

Period
95.64 min
Inclination
97.4512°
Eccentricity
0.0001817
Mean motion
15.05617349 rev/d
Perigee alt
548.4 km
Apogee alt
550.9 km
Semi-major
6,927.7 km
B*
-9.8141e-4
RAAN
196.5484°
Arg perigee
162.3477°
Mean anomaly
197.7814°
Rev number
5,481

§ Raw data

STARLINK-343091 64167U 25112X   26145.13477146 -.00014179  00000+0 -98141-3 0  99952 64167  97.4512 196.5484 0001817 162.3477 197.7814 15.05617349 54814

JSON: /api/v1/satellites/64167 · /tle

For live sub-satellite position, see the globe view (requires WebGL).

§ Visibility from observer

Set your observer location to see the next 7 days of passes ≥ 10°. The values pass through the URL so the page stays shareable.

No JS? Fill the form by hand. The geolocation button needs JavaScript.